This is the latest recevied weather packets stored in our database for station/object CX5ACA-13. If no packets are shown the sender has not sent any weather packets the latest 10 day(s).
| Time | Temp. | Humidity | Pressure | Rain* | Wind** | Luminosity | Snow |
|---|---|---|---|---|---|---|---|
| 1777758795 | 15.56° C | 61% | 1024.9 hPa | 0 mm | - | 0 W/m² | - |
| 1777758492 | 15.56° C | 62% | 1024.8 hPa | 0 mm | - | 0 W/m² | - |
| 1777758188 | 15.56° C | 64% | 1024.6 hPa | 0 mm | - | 0 W/m² | - |
| 1777757886 | 15° C | 61% | 1024.8 hPa | 0 mm | - | 0 W/m² | - |
| 1777757583 | 15° C | 62% | 1024.7 hPa | 0 mm | - | 0 W/m² | - |
| 1777757282 | 15° C | 60% | 1024.8 hPa | 0 mm | - | 0 W/m² | - |
| 1777756979 | 15° C | 60% | 1024.8 hPa | 0 mm | - | 0 W/m² | - |
| 1777756675 | 15° C | 61% | 1024.7 hPa | 0 mm | - | 1 W/m² | - |
| 1777756372 | 15° C | 63% | 1024.6 hPa | 0 mm | - | 1 W/m² | - |
| 1777756069 | 15° C | 63% | 1024.7 hPa | 0 mm | - | 3 W/m² | - |
| 1777755767 | 15° C | 62% | 1024.7 hPa | 0 mm | - | 5 W/m² | - |
| 1777755464 | 15° C | 63% | 1024.5 hPa | 0 mm | - | 8 W/m² | - |
| 1777755159 | 15° C | 63% | 1024.6 hPa | 0 mm | - | 11 W/m² | - |
| 1777754857 | 15° C | 62% | 1024.6 hPa | 0 mm | - | 15 W/m² | - |
| 1777754554 | 15° C | 63% | 1024.6 hPa | 0 mm | - | 19 W/m² | - |
| 1777754252 | 15° C | 64% | 1024.6 hPa | 0 mm | - | 24 W/m² | - |
| 1777753951 | 15° C | 64% | 1024.6 hPa | 0 mm | - | 26 W/m² | - |
| 1777753649 | 15.56° C | 64% | 1024.8 hPa | 0 mm | - | 33 W/m² | - |
| 1777753348 | 15.56° C | 62% | 1024.6 hPa | 0 mm | - | 42 W/m² | - |
| 1777753045 | 15.56° C | 63% | 1024.7 hPa | 0 mm | - | 56 W/m² | - |
| 1777752742 | 15° C | 63% | 1024.5 hPa | 0 mm | - | 51 W/m² | - |
| 1777752438 | 15° C | 63% | 1024.5 hPa | 0 mm | - | 52 W/m² | - |
| 1777752134 | 15.56° C | 64% | 1024.6 hPa | 0 mm | - | 40 W/m² | - |
| 1777751833 | 15° C | 64% | 1024.5 hPa | 0 mm | - | 105 W/m² | - |
| 1777751529 | 15° C | 66% | 1024.6 hPa | 0 mm | - | 50 W/m² | - |
* Rain latest hour (hover to see other rain measurements)
** Current wind speed in m/s (hover to see current wind gust speed)